User: anonymous   Login
Location: Cluny
(50.9333°N, 112.8167°W)
Time: 05:05:34
(UTC-06:00)
Language:

Cosmos 1743 Rocket - Orbit

View from above orbital plane
View from above orbital plane
View from above satellite
View from above satellite

Ground track
Ground track

The orbit data is extracted from the following two-line orbital elements,

1 16720U 86034B   17083.78669553 +.00000103 +00000-0 +96213-5 0  9995
2 16720 082.5544 320.1927 0020858 024.0950 020.7656 14.83280011645664
Epoch (UTC): 24 March 2017 18:52:50
Eccentricity: 0.0020858
inclination: 82.5544°
perigee height: 604 km
apogee height: 633 km
right ascension of ascending node: 320.1927°
argument of perigee: 24.0950°
revolutions per day: 14.83280011
mean anomaly at epoch: 20.7656°
orbit number at epoch: 64566

The dashed part of the orbit path shows where the satellite is in the earth's shadow,  

DLR